Regional Weather Roundup
Issued by NWS

Home | Current Version | Previous Version | Text Only | Print | Product List | Glossary Off
Versions: 1 2 3 4 5 6 7 8 9 10 11 12 13 14 15 16 17 18 19 20 21 22 23 24 25 26 27 28 29 30 31 32 33 34 35 36 37 38 39 40 41 42 43 44 45 46 47 48 49 50

000
ASUS45 KBOU 090607
RWRCO

WEATHER ROUNDUP FOR COLORADO
NATIONAL WEATHER SERVICE DENVER/BOULDER CO
1100 PM MST THU DEC 08 2016

NOTE: "FAIR" INDICATES FEW OR NO CLOUDS BELOW 12000 FEET WITH NO
SIGNIFICANT WEATHER AND/OR OBSTRUCTIONS TO VISIBILITY.

COZ001>005-013-030-031-090700-
...NORTHWEST COLORADO...

CITY           SKY/WX    TMP DP  RH WIND       PRES   REMARKS
CRAIG          CLOUDY    21  14  74 E13       30.17S WCI   9
HAYDEN         CLOUDY    18  10  73 SE7       30.17S WCI   8
MEEKER         CLOUDY    26  18  71 CALM      30.19S
MOUNT WERNER   NOT AVBL
STEAMBOAT SPGS CLOUDY    14  12  90 CALM      30.16S
WALDEN           N/A     21  16  79 S16       30.09S WCI   7
$$

COZ006>008-011-090700-
...WEST CENTRAL VALLEYS...

CITY           SKY/WX    TMP DP  RH WIND       PRES   REMARKS
GRAND JUNCTION CLOUDY    25  17  72 CALM      30.29R
MONTROSE       MOCLDY    26  17  68 CALM      30.29R
EAGLE          FLURRIES  18  14  84 E3        30.24F
RIFLE          CLOUDY    24  16  71 CALM      30.28S
DELTA          MOCLDY    29  13  50 CALM      30.29R
NUCLA          CLOUDY    30  14  51 SE6       30.31S WCI  24
$$

COZ017>023-064>068-090700-
...SOUTHWEST COLORADO...

CITY           SKY/WX    TMP DP  RH WIND       PRES   REMARKS
DURANGO        CLOUDY    25  12  58 N5        30.31S WCI  19
CORTEZ         CLOUDY    28  22  78 N3        30.30S
PAGOSA SPRINGS FAIR      19  10  68 CALM      30.32R
TELLURIDE      CLOUDY    31  21  65 S3        30.29R
WOLF CREEK PAS FAIR      12   9  85 W13G22    30.31F WCI  -3
$$

COZ009-010-012-014-032>034-037-058>063-090700-
...CENTRAL COLORADO...

CITY           SKY/WX    TMP DP  RH WIND       PRES   REMARKS
ASPEN          NOT AVBL
BUENA VISTA    CLOUDY    30  16  56 NW12      30.17R WCI  21
COPPER MTN     LGT SNOW  23  16  74 MISG      30.14R VSB 1
BERTHOUD PASS  HVY SNOW  12   1  62 W37G55    30.02S VSB 1/4 WCI -11
COTTONWOOD PAS LGT SNOW  28  21  74 W15G31    30.12R WCI  17
GUNNISON       LGT SNOW  16  13  88 CALM      30.31S FOG
KREMMLING      LGT SNOW  16  10  79 CALM      30.17F
LEADVILLE      LGT SNOW  20  16  84 NE5       30.14S FOG     WCI  13
MONARCH PASS   CLOUDY    14  12  92 W33       30.28S WCI  -8
SALIDA         CLOUDY    33  15  46 W9        30.24R WCI  26
SUNLIGHT       LGT SNOW  19  18  93 SW20G32   30.19F WCI   4
WILKERSON PASS FAIR      16  12  86 SW23G31   30.09R WCI  -2
$$

COZ069>075-090700-
...SAN LUIS VALLEY/SANGRE DE CRISTO MOUNTAINS...

CITY           SKY/WX    TMP DP  RH WIND       PRES   REMARKS
ALAMOSA        FAIR       5   0  79 W5        30.27S WCI  -4
LA VETA PASS   FAIR      21   9  58 NE37G58   30.10S WCI   1
SAGUACHE       FAIR      16  12  86 NW5       30.27S WCI   9
$$

COZ035-036-038>040-090700-
...NORTHERN COLORADO FRONT RANGE...

CITY           SKY/WX    TMP DP  RH WIND       PRES   REMARKS
DENVER INTL AP MOCLDY     6   2  83 CALM      30.17F
DMNS CITY PARK   N/A      8   4  82 NE6       30.17F WCI  -2
AURORA         PTCLDY     4   1  88 S3        30.15F
FRONT RANGE AP FAIR      10   5  79 CALM      30.17F
ERIE MUNI ARPT FAIR       4   1  86 CALM      30.19F
BOULDER MUN AP FLURRIES   7   3  85 CALM      30.17F
CENTENNIAL     FAIR       4   1  88 CALM      30.13F
BROOMFIELD     FAIR       9   5  85 CALM      30.15F
FORT COLLINS   FAIR       9   3  78 CALM      30.21S
LONGMONT       FAIR       6   2  82 CALM      30.22F
$$

COZ041-046-047-076>085-087-088-090700-
...PIKES PEAK/PALMER DIVIDE AND SOUTHERN FOOTHILLS...

CITY           SKY/WX    TMP DP  RH WIND       PRES   REMARKS
COLO. SPRINGS  LGT SNOW   9   1  70 E8        30.19F WCI  -3
A. F. ACADEMY  CLOUDY    10   6  83 S6        30.14F WCI   0
SCHRIEVER AFB  NOT AVBL
ELLICOTT       LGT RAIN N/A N/A N/A SE6         N/A
FALCON         LGT SNOW   2  -2  81 SW3       30.14F
FORT CARSON    FLURRIES  10   2  69 W2        30.18F
LIMON          FAIR       4  -2  76 S9        30.23F WCI -10
MONUMENT HILL  FAIR       9   3  78 S16       30.09F WCI  -9
TRINIDAD       FAIR       9   4  80 NE6       30.22F WCI  -1
$$

COZ042>045-048>051-090-091-090700-
...NORTHEAST COLORADO...

CITY           SKY/WX    TMP DP  RH WIND       PRES   REMARKS
GREELEY ARPT   FAIR      14   6  70 CALM      30.24F
AKRON          CLOUDY    12   3  67 S16       30.26F WCI  -5
BURLINGTON     MOCLDY    11   2  67 S14       30.34F WCI  -5
WRAY           NOT AVBL
STERLING       MOCLDY    14   9  79 S10       30.29F WCI   1
HOLYOKE        FAIR       9   3  78 S6        30.37F WCI  -1
FORT MORGAN    CLOUDY    16   5  62 S12       30.25F WCI   3
$$

COZ086-089-092>099-090700-
...SOUTHEAST COLORADO...

CITY           SKY/WX    TMP DP  RH WIND       PRES   REMARKS
PUEBLO         FAIR      10   2  69 NE7       30.27F WCI  -1
LA JUNTA       FAIR      14   4  64 E7        30.29F WCI   4
LAMAR          FAIR       9  -1  64 E8        30.35F WCI  -3
SPRINGFIELD      N/A     19  10  68 S17       30.33F WCI   4
$$



USA.gov is the U.S. government's official web portal to all federal, state and local government web resources and services.